This is the latest recevied weather packets stored in our database for station/object DC0VZ-6. If no packets are shown the sender has not sent any weather packets the latest 10 day(s).
| Time | Temp. | Humidity | Pressure | Rain* | Wind** | Luminosity | Snow |
|---|---|---|---|---|---|---|---|
| 1777776970 | 13.89° C | 23% | 983.1 hPa | 0 mm | - | - | - |
| 1777776370 | 13.89° C | 22% | 983.1 hPa | 0 mm | - | - | - |
| 1777775769 | 13.89° C | 21% | 983.3 hPa | 0 mm | - | - | - |
| 1777775170 | 14.44° C | 21% | 983.3 hPa | 0 mm | - | - | - |
| 1777774570 | 14.44° C | 21% | 983.2 hPa | 0 mm | - | - | - |
| 1777773970 | 14.44° C | 21% | 983.2 hPa | 0 mm | - | - | - |
| 1777773369 | 13.33° C | 21% | 983.4 hPa | 0 mm | - | - | - |
| 1777772769 | 13.89° C | 21% | 983.4 hPa | 0 mm | - | - | - |
| 1777772169 | 13.33° C | 19% | 983.5 hPa | 0 mm | - | - | - |
| 1777771569 | 13.33° C | 19% | 983.5 hPa | 0 mm | - | - | - |
| 1777770974 | 13.33° C | 19% | 983.8 hPa | 0 mm | - | - | - |
| 1777770374 | 13.33° C | 19% | 983.8 hPa | 0 mm | - | - | - |
| 1777769774 | 13.33° C | 19% | 983.9 hPa | 0 mm | - | - | - |
| 1777769174 | 12.22° C | 20% | 983.9 hPa | 0 mm | - | - | - |
| 1777768574 | 12.22° C | 20% | 984 hPa | 0 mm | - | - | - |
| 1777767974 | 13.33° C | 19% | 984 hPa | 0 mm | - | - | - |
| 1777767373 | 13.33° C | 19% | 984.2 hPa | 0 mm | - | - | - |
| 1777766773 | 13.89° C | 19% | 984.2 hPa | 0 mm | - | - | - |
| 1777766173 | 13.89° C | 19% | 984.2 hPa | 0 mm | - | - | - |
| 1777765573 | 13.33° C | 19% | 984.2 hPa | 0 mm | - | - | - |
| 1777764973 | 13.33° C | 19% | 984.4 hPa | 0 mm | - | - | - |
| 1777764373 | 13.33° C | 19% | 984.4 hPa | 0 mm | - | - | - |
| 1777763773 | 13.33° C | 19% | 984.7 hPa | 0 mm | - | - | - |
| 1777763173 | 13.33° C | 19% | 984.7 hPa | 0 mm | - | - | - |
| 1777762573 | 14.44° C | 19% | 984.6 hPa | 0 mm | - | - | - |
* Rain latest hour (hover to see other rain measurements)
** Current wind speed in m/s (hover to see current wind gust speed)